041014 445  1.0+  1.0-    041210 A06  0.0   0.3-    051103 349  0.3-  0.5-  

041014 445  1.2+  1.0-    041210 939  0.4-  0.5+    051103 349  0.3-  0.3-  

041014 445  1.0+  1.0-    041210 A06  0.1+  0.4-    051103 349  0.5-  0.1-  

041014 445  0.9+  1.0-    041210 A06  0.0   0.2-    051110 349  0.9+  1.0+  

041015 349  0.1+  0.2-    041210 939  0.6-  0.6+    051110 349  1.4+  1.0+  

041015 349  0.1-  0.3-    041210 939  0.6-  0.7+    051129 349  0.2+  0.0   

041015 349  0.2+  0.2-    041210 A01  0.1-  0.4+    051129 349  0.2+  0.1-  

041015 349  0.0   0.2-    041210 A01  0.1+  0.3+    051129 349  0.6+  0.1+  

041015 379  0.2-  0.2-    041211 A01  0.1-  0.2-    051222 349  0.6+  0.4+  

041015 379  0.1+  0.3-    041211 379  0.0   0.4-    051222 349  0.4+  0.7+  

041015 379  0.0   0.5-    041211 379  0.5-  0.3-    051222 349  0.2+  0.6+  

041015 379  0.4+  0.4-    041211 233  0.5+  0.3-    2006/                   

041015 372  0.3-  0.6+    041211 233  0.6+  0.8-    060107 349  1.0+  0.1+  

041015 415  0.1-  1.0-    041211 233  0.6+  0.5-    060107 349  0.9+  0.1-  

041015 415  0.6+  1.1-    041211 233  0.5+  0.6-    060107 349  1.2+  0.4-  

041015 352  0.1+  0.2-    041211 561  0.1+  0.2-    060108 561  0.4+  1.2+  

041015 352  0.1+  0.2-    041211 561  0.1+  0.2-    060108 561  0.0   0.7+  

041015 352  0.2+  0.2-    041211 561  0.2+  0.2-    060108 561  0.4+  0.8+  

041015 J78  0.3+  0.6-    041211 235  0.8+  0.2+    060129 349  0.6+  0.8+  

041015 J78  0.1+  0.1+    041212 683 (0.8-  2.1+)   060129 349  0.7+  0.5+  

041015 J78  0.2+  0.5+    041212 683  0.4-  0.1-    060129 349  0.6+  0.4+  

041016 379  0.3-  0.2+    041212 683  0.6-  0.1-    060207 704  0.8+  1.5+  

041016 379  0.5-  0.1+    041212 683  0.5-  0.0     060207 704 (0.7+  2.1+) 

041016 379  0.5-  0.3+    041212 683  0.4-  0.0     060207 704 (1.1+  2.4+) 

041016 379  0.5-  0.1+    041212 683  0.5-  0.0     060207 704  0.5-  1.5+  

041016 379  0.2+  0.2+    041212 683  0.4-  0.0     060302 703  1.1-  0.2+  

041016 360  0.2-  0.3+    041212 683  0.6-  0.0     060302 703  0.0   0.1+  

041016 360  0.1-  0.3+    041212 683  0.4-  0.1+    060302 703  1.7+  1.4-  

041016 372  0.8-  0.5+    041212 683  0.5-  0.0     060302 703  0.2-  1.7-  

041016 355  0.0   0.4+    041212 683  0.5-  0.1-    060309 703  0.8+  1.5-  

041016 355  0.0   0.5+    041212 160  0.3-  0.3-    060309 703  1.1-  1.9-  

041016 355  0.0   0.3+    041212 160  0.1-  0.1-    060309 703  0.8-  1.6-  

041016 355  0.0   0.3+    041212 160  0.2-  0.3-    060309 703 (0.4-  2.6-) 

041016 355  0.1-  0.4+    041212 160  0.2-  0.1-    060321 349  0.9-  0.4-  

041016 D70  0.4-  0.8+    041212 160  0.2-  0.2-    060321 349  1.2-  0.4-  

041016 D70  0.2-  0.5+    041212 213  0.1-  0.1+    060321 349  1.2-  0.0   

041016 J78  0.1-  1.1+    041212 213  0.1-  0.1+    060324 H06  1.5+  0.1-  

041016 J78  0.0   0.4+    041212 213  0.2-  0.1+    060325 H06 (3.2+  1.5+) 

041016 J78  0.2+  0.3-    041213 379  0.1-  0.1-    060402 704 (3.2+  1.7+) 

041016 213  0.1-  0.6+    041213 379  0.3-  0.4-    060402 704  0.6-  0.9+  

041016 213  0.2-  0.4+    041213 379  0.7-  0.1-    060402 704 (0.9+  3.5+) 

041016 213  0.1-  0.4+    041213 379  0.1-  0.5-    060402 704  0.4+  0.3-  

041017 939  0.0   0.6+    041213 372  1.7-  0.3+    060429 204  0.3+  1.6+  

041017 939  0.1-  0.7+    041213 160  0.1-  0.2-    060429 204  0.2+  1.1+  



NAKANO

         **** Don't distribute anyone except personal use only ****

                (C) Copyright 2006 OAA/ComputingSection

write mail from CFAD0::NAKANO on 2006-07-20 23:22:32(JST).

 

    C/2004 Q1 (Tucker)

Epoch 2004 Dec. 21.0 TT = JDT 2453360.5  

T 2004 Dec. 6.86499 TT                                  Nakano

q   2.0467260            (2000.0)            P               Q

z  +0.0053601      Peri.   32.96843     +0.66279057     -0.68041931

 +/-0.0000004      Node    22.13020     +0.36836575     -0.06721903

e   0.9890294      Incl.   56.08773     +0.65193200     +0.72973362

From 1889 observations 2004 Aug. 22-2005 Aug. 16, mean residual 0".45.

   (1/a)org.= +0.005230, (1/a)fut.= +0.005953 (+/-0.000000), Q= 8.

See residuals on http://www.oaa.gr.jp/~oaacs/nk/nk1236.htm



NAKANO

         **** Don't distribute anyone except personal use only ****

                (C) Copyright 2005 OAA/ComputingSection

write mail from CFAD0::NAKANO on 2005-11-03 23:34:28(JST).

 

    C/2004 Q1 (Tucker)                                                    

Epoch 2004 Dec. 21.0 TT = JDT 2453360.5  

T 2004 Dec. 6.86543 TT                                  Nakano

q   2.0467225            (2000.0)            P               Q

z  +0.0053635      Peri.   32.96863     +0.66278795     -0.68042205

 +/-0.0000004      Node    22.13019     +0.36836610     -0.06721924

e   0.9890224      Incl.   56.08766     +0.65193447     +0.72973105

From 1841 observations 2004 Aug. 22-2005 May 20, mean residual 0".43.

   (1/a)org.= +0.005234, (1/a)fut.= +0.005956 (+/-0.000000), Q= 8.



NAKANO

         **** Don't distribute anyone except personal use only ****

                (C) Copyright 2005 OAA/ComputingSection

write mail from CFAD0::NAKANO on 2005-06-05 05:59:11(JST).

 

    C/2004 Q1 (Tucker)                                                    

Epoch 2004 Dec. 21.0 TT = JDT 2453360.5  

T 2004 Dec. 6.86674 TT                                  Nakano

q   2.0467108            (2000.0)            P               Q

z  +0.0053729      Peri.   32.96928     +0.66277975     -0.68043078

 +/-0.0000014      Node    22.13016     +0.36836756     -0.06721895

e   0.9890032      Incl.   56.08736     +0.65194198     +0.72972294

From 1576 observations 2004 Aug. 22-2005 Jan. 31, mean residual 0".41.

   (1/a)org.= +0.005243, (1/a)fut.= +0.005965 (+/-0.000001), Q= 7.



NAKANO

         **** Don't distribute anyone except personal use only ****

                (C) Copyright 2005 OAA/ComputingSection

write mail from CFAD0::NAKANO on 2005-03-05 03:18:44(JST).

 

    C/2004 Q1 (Tucker)                                                    

Epoch 2004 Dec. 21.0 TT = JDT 2453360.5  

T 2004 Dec. 6.86747 TT                                  Nakano

q   2.0466991            (2000.0)            P               Q

z  +0.0053836      Peri.   32.96968     +0.66277454     -0.68043690

 +/-0.0000029      Node    22.13009     +0.36836984     -0.06721549

e   0.9889813      Incl.   56.08697     +0.65194598     +0.72971755

From 1355 observations 2004 Aug. 22-Dec. 23, mean residual 0".42.

   (1/a)org.= +0.005254, (1/a)fut.= +0.005976 (+/-0.000003), Q= 6.



NAKANO

         **** Don't distribute anyone except personal use only ****

                (C) Copyright 2005 OAA/ComputingSection

write mail from CFAD0::NAKANO on 2005-01-04 01:58:32(JST).

 

    C/2004 Q1 (Tucker)                                                    

Epoch 2004 Dec. 21.0 TT = JDT 2453360.5  

T 2004 Dec. 6.86751 TT                                  Nakano

q   2.0466963            (2000.0)            P               Q

z  +0.0053869      Peri.   32.96971     +0.66277405     -0.68043774

 +/-0.0000039      Node    22.13007     +0.36837066     -0.06721378

e   0.9889746      Incl.   56.08685     +0.65194603     +0.72971693

From 1176 observations 2004 Aug. 22-Dec. 6, mean residual 0".44.

   (1/a)org.= +0.005257, (1/a)fut.= +0.005979 (+/-0.000004), Q= 6.



NAKANO

         **** Don't distribute anyone except personal use only ****

                (C) Copyright 2004 OAA/ComputingSection

write mail from CFAD0::NAKANO on 2004-12-09 01:41:38(JST).

 

    C/2004 Q1 (Tucker)                                                    

Epoch 2004 Dec. 21.0 TT = JDT 2453360.5  

T 2004 Dec. 6.86690 TT                                  Nakano

q   2.0467005            (2000.0)            P               Q

z  +0.0053874      Peri.   32.96938     +0.66277798     -0.68043393

 +/-0.0000082      Node    22.13007     +0.36837115     -0.06721144

e   0.9889737      Incl.   56.08683     +0.65194175     +0.72972069

From 799 observations 2004 Aug. 22-Nov. 1, mean residual 0".45.

   (1/a)org.= +0.005258, (1/a)fut.= +0.005980 (+/-0.000008), Q= 6.



NAKANO

         **** Don't distribute anyone except personal use only ****

                (C) Copyright 2004 OAA/ComputingSection

write mail from CFAD0::NAKANO on 2004-11-03 02:43:59(JST).

 

    C/2004 Q1 (Tucker)                                                    

T 2004 Dec. 6.85900 TT                                  Nakano

q   2.0466924            (2000.0)            P               Q

z  +0.0055161      Peri.   32.96448     +0.66282922     -0.68039914

 +/-0.0000425      Node    22.12914     +0.36841634     -0.06709390

e   0.9887102      Incl.   56.08124     +0.65186411     +0.72976395

From 385 observations 2004 Aug. 22-Sept. 25.



NAKANO

         **** Don't distribute anyone except personal use only ****

                (C) Copyright 2004 OAA/ComputingSection

write mail from CFAD0::NAKANO on 2004-10-04 01:08:29(JST).

 

◎C/2004 Q1の軌道と予報位置です



 山本速報No.2437にある軌道(8月22日〜26日)の予報から,最終の9月12日

の上尾の観測は,45"のずれ,EMESにある長円軌道(〜31日)からの予報の同観

測のずれは,19"ほどありました.彗星は,これから明るくなります.



    C/2004 Q1 (Tucker)                                                    

T 2004 Dec. 6.91773 TT                                  Nakano

q   2.0461474            (2000.0)            P               Q

z  +0.0055182      Peri.   33.00030     +0.66243590     -0.68078453

 +/-0.0001849      Node    22.12743     +0.36831370     -0.06737092

e   0.9887090      Incl.   56.08606     +0.65232178     +0.72937890

From 141 observations 2004 Aug. 22-Sept. 12.

 

Date/        TT  R.A.(2000) Decl.     Delta   r     Daily motion  Mag.  Moon Age

              h    h  m       。  ,                      ,  / PA 。  m1      。

2004 Sept.10 16  02 35.57  +08 11.5   1.523  2.292    25.8 / 333  13.5   84  .15

          11 16  02 34.79  +08 34.5   1.508  2.287    26.4 / 332  13.5   96  .09

